Anchorage, AK

5:34 AM AKDT on August 25, 2016 (GMT -0800)
Merrill

Weather History for PAMR - February, 2012

Change the Weather History Date:

Sunday, February 5, 2012

  Actual Average Record
Temperature  
Mean Temperature 18 °F -  
Max Temperature 24 °F 24 °F 37 °F (2016)
Min Temperature 12 °F 12 °F -4 °F (2015)
Degree Days  
Heating Degree Days 47    
Moisture  
Dew Point 12 °F    
Average Humidity 78    
Maximum Humidity 88    
Minimum Humidity 62    
Precipitation  
Precipitation 0.00 in - - ()
Snow  
Snow 0.00 in - - ()
Snow Depth 25.00 in    
Sea Level Pressure  
Sea Level Pressure 29.94 in    
Wind  
Wind Speed 3 mph (NE)    
Max Wind Speed 6 mph    
Max Gust Speed -    
Visibility 10 miles    
Events      
Averages and records for this station are not official NWS values.
T = Trace of Precipitation, MM = Missing Value Source: NWS Daily Summary

Daily Weather History Graph

Daily Weather History Graph

Search for Another Location

Airport or City:

Trip Planner

Search our weather history database for the weather conditions in past years. The results will help you decide how hot, cold, wet, or windy it might be!

Date:

Astronomy

Feb. 05, 2012 Rise Set
Actual Time 9:10 AM AKST 5:17 PM AKST
Civil Twilight 8:21 AM AKST 6:05 PM AKST
Nautical Twilight 7:29 AM AKST 6:58 PM AKST
Astronomical Twilight 6:39 AM AKST 7:48 PM AKST
Moon 3:05 PM AKST (2/5) 7:53 AM AKST (2/5)
Length of Visible Light 9h 44m
Length of Day
8h 07m
Waxing Gibbous, 95% of the Moon is Illuminated
Feb 5
Waxing Gibbous
Feb 7
Full
Feb 14
Last Quarter
Feb 21
New
Feb 29
First Quarter

Hourly Weather History & Observations

Time (AKST) Temp. Windchill Dew Point Humidity Pressure Visibility Wind Dir Wind Speed Gust Speed Precip Events Conditions
12:53 AM 12.9 °F 6.9 °F 10.0 °F 88% 30.10 in 10.0 mi East 3.5 mph - N/A   Mostly Cloudy
1:53 AM 12.9 °F - 9.0 °F 84% 30.08 in 10.0 mi Calm Calm - N/A   Mostly Cloudy
2:53 AM 15.1 °F 7.7 °F 10.0 °F 80% 30.05 in 10.0 mi North 4.6 mph - N/A   Mostly Cloudy
3:53 AM 14.0 °F 6.5 °F 10.0 °F 84% 30.02 in 10.0 mi NE 4.6 mph - N/A   Mostly Cloudy
4:53 AM 12.9 °F 5.2 °F 8.1 °F 81% 29.98 in 10.0 mi NE 4.6 mph - N/A   Mostly Cloudy
5:53 AM 14.0 °F 5.1 °F 8.1 °F 77% 29.92 in 10.0 mi NNE 5.8 mph - N/A   Mostly Cloudy
6:53 AM 14.0 °F 6.5 °F 8.1 °F 77% 29.90 in 10.0 mi ENE 4.6 mph - N/A   Partly Cloudy
7:53 AM 12.9 °F 6.9 °F 8.1 °F 81% 29.86 in 10.0 mi NE 3.5 mph - N/A   Partly Cloudy
8:53 AM 14.0 °F - 8.1 °F 77% 29.85 in 10.0 mi Calm Calm - N/A   Overcast
9:53 AM 12.9 °F - 8.1 °F 81% 29.84 in 10.0 mi Calm Calm - N/A   Mostly Cloudy
10:53 AM 14.0 °F 6.5 °F 9.0 °F 80% 29.85 in 10.0 mi ENE 4.6 mph - N/A   Scattered Clouds
11:53 AM 18.0 °F - 12.0 °F 78% 29.90 in 10.0 mi Calm Calm - N/A   Mostly Cloudy
12:53 PM 21.9 °F - 12.9 °F 68% 29.90 in 10.0 mi Calm Calm - N/A   Mostly Cloudy
1:53 PM 24.1 °F 18.2 °F 12.9 °F 62% 29.89 in 10.0 mi ESE 4.6 mph - N/A   Mostly Cloudy
2:53 PM 24.1 °F 19.7 °F 15.1 °F 69% 29.89 in 10.0 mi Variable 3.5 mph - N/A   Mostly Cloudy
3:53 PM 21.9 °F 14.5 °F 14.0 °F 72% 29.88 in 10.0 mi NW 5.8 mph - N/A   Mostly Cloudy
4:53 PM 23.0 °F 18.4 °F 16.0 °F 74% 29.89 in 10.0 mi ENE 3.5 mph - N/A   Mostly Cloudy
5:53 PM 21.0 °F 14.6 °F 16.0 °F 81% 29.92 in 10.0 mi ESE 4.6 mph - N/A   Overcast
6:53 PM 23.0 °F 15.8 °F 17.1 °F 78% 29.92 in 10.0 mi WNW 5.8 mph - N/A   Mostly Cloudy
7:53 PM 19.0 °F 13.9 °F 15.1 °F 85% 29.95 in 10.0 mi SE 3.5 mph - N/A   Partly Cloudy
8:53 PM 19.0 °F 11.1 °F 15.1 °F 85% 29.95 in 10.0 mi North 5.8 mph - N/A   Scattered Clouds
9:53 PM 15.1 °F 7.7 °F 10.9 °F 84% 29.98 in 10.0 mi ENE 4.6 mph - N/A   Scattered Clouds
10:53 PM 21.0 °F 16.2 °F 16.0 °F 81% 29.99 in 10.0 mi North 3.5 mph - N/A   Scattered Clouds
11:53 PM 19.0 °F - 14.0 °F 81% 29.99 in 10.0 mi Calm Calm - N/A   Scattered Clouds